Terminal Aerodrome Forecast
Issued by NWS

Home | Current Version | Previous Version | Graphics & Text | Print | Product List | Glossary On
Versions: 1 2 3 4 5 6 7 8 9 10 11 12 13 14 15 16 17 18 19 20 21 22 23 24 25 26 27 28 29 30 31 32 33 34 35 36 37
000
FTUS43 KLOT 222100 AAB
TAFMDW
TAF AMD
KMDW 222102Z 2221/2318 09008KT P6SM SKC
     FM230000 20004KT P6SM SKC
     FM231400 22005KT P6SM SKC=

USA.gov is the U.S. government's official web portal to all federal, state and local government web resources and services.